Location: BGSU Observatory
(41.3799°N, 83.6397°W)
Time: 10:02:43
(UTC-04:00)

Amateur Radio Satellites - All Passes

Search period start: 29 August 2014 09:32
Search period end: 30 August 2014 09:32
Location: BGSU Observatory, 41.3799°N, 83.6397°W

Satellite Date Start Highest point End Downlink Frequencies (MHz)
Time Altitude Azimuth
Saudisat 1A 29 Aug 09:40:18 09:44:08 29° 246° (WSW) 09:47:56 436.775 MHz
RS-15 29 Aug 09:47:02 09:58:06 74° 306° (NW) 10:09:04 29.354 - 29.394 USB, Beacon 29.352 USB
KITSAT 1 29 Aug 10:05:06 10:13:13 84° 242° (WSW) 10:21:16 435.175 FM
UKube-1 29 Aug 10:15:39 10:19:01 22° 95° (E) 10:22:21 145.840 MHz, 145.915 MHz
Oscar 11 29 Aug 10:23:51 10:26:48 18° 92° (E) 10:29:44 145.825 FM, Beacon 2401.500 USB
FUNcube-1 29 Aug 10:45:43 10:47:39 12° 90° (E) 10:49:35 145.950 - 145.970 MHz USB
HO-68 29 Aug 11:10:19 11:17:28 76° 289° (WNW) 11:24:36 435.675 MHz FM
ISS 29 Aug 11:24:30 11:27:21 27° 135° (SE) 11:30:13 145.800 FM
SO-50 29 Aug 11:49:36 11:50:58 11° 33° (NNE) 11:52:20 436.795 FM
UKube-1 29 Aug 11:51:22 11:55:16 33° 291° (WNW) 11:59:10 145.840 MHz, 145.915 MHz
Oscar 11 29 Aug 11:59:02 12:03:10 41° 288° (WNW) 12:07:15 145.825 FM, Beacon 2401.500 USB
KITSAT 1 29 Aug 12:02:53 12:07:23 16° 260° (W) 12:11:53 435.175 FM
RS-15 29 Aug 12:03:47 12:12:42 27° 334° (NNW) 12:21:41 29.354 - 29.394 USB, Beacon 29.352 USB
FUNcube-1 29 Aug 12:19:56 12:24:25 64° 285° (WNW) 12:28:57 145.950 - 145.970 MHz USB
Oscar 19 29 Aug 12:47:08 12:49:23 13° 59° (ENE) 12:51:37 437.125 CW, 437.150 USB
HO-68 29 Aug 13:00:10 13:04:01 16° 308° (NW) 13:07:52 435.675 MHz FM
ISS 29 Aug 13:00:51 13:03:59 38° 332° (NNW) 13:07:09 145.800 FM
JAS-1B 29 Aug 13:01:31 13:07:32 19° 54° (NE) 13:13:09 435.800 - 435.900 CW/SSB
ITAMSAT 1 29 Aug 13:17:10 13:18:18 11° 57° (ENE) 13:19:27 435.822 SSB
Oscar 16 29 Aug 13:19:22 13:23:35 26° 65° (ENE) 13:27:50 437.025 USB, Beacon 2401.1428
Uribyol 2 29 Aug 13:25:54 13:28:30 14° 60° (ENE) 13:31:07 436.500 FM
AO-Echo 29 Aug 13:26:36 13:29:03 14° 61° (ENE) 13:31:28 ?
SO-50 29 Aug 13:27:51 13:32:34 56° 53° (NE) 13:37:19 436.795 FM
AO-27 29 Aug 13:42:56 13:46:33 20° 63° (ENE) 13:50:11 436.795 MHz FM
UOSAT-12 29 Aug 13:57:14 13:59:47 14° 37° (NE) 14:02:20 437.025 FM, 437.400 FM
Gurwin Techsat 1B 29 Aug 14:03:32 14:06:07 14° 59° (ENE) 14:08:42 435.225 FM
MaSat-1 29 Aug 14:08:34 14:13:12 50° 110° (ESE) 14:18:10 437.345 MHz
RS-15 29 Aug 14:22:25 14:30:15 21° 10° (N) 14:38:11 29.354 - 29.394 USB, Beacon 29.352 USB
Oscar 19 29 Aug 14:22:48 14:27:58 86° 257° (WSW) 14:33:11 437.125 CW, 437.150 USB
ISS 29 Aug 14:39:21 14:41:25 15° 352° (N) 14:43:30 145.800 FM
JAS-1B 29 Aug 14:46:59 14:56:47 74° 72° (ENE) 15:05:39 435.800 - 435.900 CW/SSB
PANSAT 29 Aug 14:50:35 14:52:05 12° 178° (S) 14:53:35 not established
ITAMSAT 1 29 Aug 14:51:46 14:56:56 80° 74° (ENE) 15:02:07 435.822 SSB
TMSAT-1 29 Aug 14:53:50 14:58:16 28° 66° (ENE) 15:02:43 436.925 FM
AO-7 29 Aug 14:57:04 15:02:19 19° 49° (NE) 15:07:32 29.400 - 29.500 MHz
Oscar 16 29 Aug 14:57:56 15:02:44 39° 262° (W) 15:07:35 437.025 USB, Beacon 2401.1428
Uribyol 2 29 Aug 15:02:09 15:07:18 78° 257° (WSW) 15:12:29 436.500 FM
AO-Echo 29 Aug 15:02:10 15:07:15 75° 257° (WSW) 15:12:11 ?
SO-50 29 Aug 15:09:27 15:12:44 18° 250° (WSW) 15:16:02 436.795 FM
AO-27 29 Aug 15:20:35 15:25:39 55° 259° (W) 15:30:44 436.795 MHz FM
UOSAT-12 29 Aug 15:35:58 15:40:43 80° 56° (ENE) 15:45:23 437.025 FM, 437.400 FM
Gurwin Techsat 1B 29 Aug 15:40:03 15:45:22 83° 256° (WSW) 15:50:42 435.225 FM
MaSat-1 29 Aug 15:46:32 15:50:32 24° 309° (NW) 15:54:41 437.345 MHz
Uosat F 29 Aug 15:53:00 15:56:33 20° 63° (ENE) 16:00:06 435.120 FM
ISS 29 Aug 16:16:54 16:19:09 17° 12° (NNE) 16:21:25 145.800 FM
TMSAT-1 29 Aug 16:33:09 16:38:02 37° 263° (W) 16:42:56 436.925 FM
ITAMSAT 1 29 Aug 16:35:08 16:37:01 12° 271° (W) 16:38:55 435.822 SSB
RS-15 29 Aug 16:36:05 16:46:32 45° 43° (NE) 16:57:16 29.354 - 29.394 USB, Beacon 29.352 USB
JAS-1B 29 Aug 16:39:38 16:47:41 29° 268° (W) 16:55:16 435.800 - 435.900 CW/SSB
AO-7 29 Aug 16:45:29 16:53:48 78° 69° (ENE) 17:02:08 29.400 - 29.500 MHz
Oscar 10/S400 29 Aug 16:52:44 17:07:15 22° 144° (SE) 17:22:42 145.825 - 145.975 CW/USB, Beacon 145.810 USB
JAS-2 29 Aug 16:56:26 16:57:03 10° 58° (ENE) 16:57:39 435.800 - 435.900 CW/SSB, 435.910 FM
Sapphire 29 Aug 17:08:29 17:12:28 21° 106° (ESE) 17:16:29 437.095 MHz 1200 baud AX-25 AFSK
OPAL 29 Aug 17:08:59 17:12:45 20° 95° (E) 17:16:30 ?
UOSAT-12 29 Aug 17:18:35 17:20:10 12° 253° (WSW) 17:21:45 437.025 FM, 437.400 FM
Uosat F 29 Aug 17:30:05 17:34:57 51° 260° (W) 17:39:50 435.120 FM
PCSat 29 Aug 17:36:49 17:41:51 41° 112° (ESE) 17:46:55 145.825 MHz
ISS 29 Aug 17:53:12 17:56:28 52° 31° (NNE) 17:59:44 145.800 FM
Hamsat 29 Aug 17:54:21 17:57:55 26° 68° (ENE) 18:01:30 145.90 MHz
JAS-2 29 Aug 18:35:07 18:41:21 72° 74° (ENE) 18:46:55 435.800 - 435.900 CW/SSB, 435.910 FM
AO-7 29 Aug 18:41:10 18:47:20 23° 267° (W) 18:53:32 29.400 - 29.500 MHz
OPAL 29 Aug 18:46:50 18:51:54 52° 291° (WNW) 18:56:56 ?
RS-15 29 Aug 18:48:32 18:59:21 61° 246° (WSW) 19:10:37 29.354 - 29.394 USB, Beacon 29.352 USB
Sapphire 29 Aug 18:50:12 18:55:28 54° 304° (WNW) 19:00:48 437.095 MHz 1200 baud AX-25 AFSK
PCSat 29 Aug 19:20:36 19:25:22 31° 310° (NW) 19:30:09 145.825 MHz
Hamsat 29 Aug 19:30:03 19:33:46 28° 265° (W) 19:37:32 145.90 MHz
ISS 29 Aug 19:30:33 19:32:57 19° 228° (SW) 19:35:21 145.800 FM
SO-67 29 Aug 19:40:26 19:43:48 51° 75° (ENE) 19:47:11 435.3500 MHz FM
HO-68 29 Aug 19:54:34 19:58:46 17° 53° (NE) 20:02:59 435.675 MHz FM
JAS-2 29 Aug 20:23:11 20:26:49 16° 268° (W) 20:30:15 435.800 - 435.900 CW/SSB, 435.910 FM
STRAND 1 29 Aug 20:28:25 20:33:33 80° 103° (ESE) 20:38:39 ?
Sapphire 29 Aug 20:38:39 20:40:10 11° 325° (NW) 20:41:42 437.095 MHz 1200 baud AX-25 AFSK
RS-15 29 Aug 21:06:44 21:09:19 11° 266° (W) 21:11:55 29.354 - 29.394 USB, Beacon 29.352 USB
UKube-1 29 Aug 21:11:40 21:14:50 20° 65° (ENE) 21:18:02 145.840 MHz, 145.915 MHz
Oscar 11 29 Aug 21:19:47 21:22:16 15° 64° (ENE) 21:24:45 145.825 FM, Beacon 2401.500 USB
HO-68 29 Aug 21:38:17 21:45:25 82° 72° (ENE) 21:52:36 435.675 MHz FM
STRAND 1 29 Aug 22:09:38 22:12:03 14° 301° (WNW) 22:14:28 ?
MaSat-1 29 Aug 22:27:27 22:29:53 14° 44° (NE) 22:32:10 437.345 MHz
KITSAT 1 29 Aug 22:43:50 22:46:49 12° 98° (E) 22:49:47 435.175 FM
UKube-1 29 Aug 22:46:46 22:50:48 37° 262° (W) 22:54:51 145.840 MHz, 145.915 MHz
Oscar 11 29 Aug 22:53:47 22:58:00 52° 260° (W) 23:02:17 145.825 FM, Beacon 2401.500 USB
FUNcube-1 29 Aug 23:16:28 23:20:37 78° 258° (WSW) 23:24:53 145.950 - 145.970 MHz USB
HO-68 29 Aug 23:29:22 23:33:53 18° 270° (W) 23:38:25 435.675 MHz FM
Saudisat 1A 29 Aug 23:46:02 23:50:24 70° 120° (ESE) 23:54:48 436.775 MHz
MaSat-1 30 Aug 00:03:01 00:07:38 78° 246° (WSW) 00:11:35 437.345 MHz
KITSAT 1 30 Aug 00:32:43 00:40:45 71° 116° (ESE) 00:48:48 435.175 FM
Saudisat 1A 30 Aug 01:27:34 01:30:27 17° 319° (NW) 01:33:21 436.775 MHz
Sapphire 30 Aug 01:55:24 01:59:30 21° 45° (NE) 02:03:34 437.095 MHz 1200 baud AX-25 AFSK
PCSat 30 Aug 02:24:31 02:29:30 35° 52° (NE) 02:34:26 145.825 MHz
KITSAT 1 30 Aug 02:29:46 02:36:48 32° 318° (NW) 02:43:52 435.175 FM
Oscar 19 30 Aug 02:34:42 02:39:25 34° 97° (E) 02:44:04 437.125 CW, 437.150 USB
JAS-1B 30 Aug 02:36:48 02:40:34 16° 86° (E) 02:44:04 435.800 - 435.900 CW/SSB
ITAMSAT 1 30 Aug 03:05:05 03:09:31 28° 96° (E) 03:13:56 435.822 SSB
Oscar 16 30 Aug 03:09:05 03:14:19 74° 103° (ESE) 03:19:29 437.025 USB, Beacon 2401.1428
AO-Echo 30 Aug 03:09:41 03:13:55 33° 97° (E) 03:18:08 ?
Uribyol 2 30 Aug 03:15:02 03:19:51 37° 98° (E) 03:24:38 436.500 FM
AO-27 30 Aug 03:33:26 03:38:31 53° 100° (E) 03:43:34 436.795 MHz FM
Sapphire 30 Aug 03:38:01 03:43:25 67° 244° (WSW) 03:48:47 437.095 MHz 1200 baud AX-25 AFSK
SO-50 30 Aug 03:44:45 03:47:32 16° 109° (ESE) 03:50:22 436.795 FM
Gurwin Techsat 1B 30 Aug 03:56:26 04:01:25 39° 98° (E) 04:06:21 435.225 FM
PCSat 30 Aug 04:08:00 04:12:52 35° 250° (WSW) 04:17:42 145.825 MHz
Oscar 19 30 Aug 04:14:09 04:18:39 30° 293° (WNW) 04:23:07 437.125 CW, 437.150 USB
OPAL 30 Aug 04:23:37 04:28:11 36° 66° (ENE) 04:32:50 ?
JAS-1B 30 Aug 04:25:23 04:32:16 73° 288° (WNW) 04:38:10 435.800 - 435.900 CW/SSB
KITSAT 1 30 Aug 04:32:14 04:35:21 12° 346° (NNW) 04:38:28 435.175 FM
ITAMSAT 1 30 Aug 04:44:21 04:49:02 36° 292° (WNW) 04:53:43 435.822 SSB
AO-7 30 Aug 04:48:03 04:54:32 25° 93° (E) 05:00:57 29.400 - 29.500 MHz
TMSAT-1 30 Aug 04:48:21 04:53:41 87° 104° (ESE) 04:58:59 436.925 FM
AO-Echo 30 Aug 04:48:43 04:52:34 26° 293° (WNW) 04:56:24 ?
Oscar 16 30 Aug 04:50:09 04:53:02 15° 300° (WNW) 04:55:54 437.025 USB, Beacon 2401.1428
Uribyol 2 30 Aug 04:54:48 04:59:09 28° 294° (WNW) 05:03:30 436.500 FM
AO-27 30 Aug 05:13:55 05:17:38 20° 297° (WNW) 05:21:20 436.795 MHz FM
SO-50 30 Aug 05:23:14 05:27:37 55° 307° (NW) 05:32:08 436.795 FM
Gurwin Techsat 1B 30 Aug 05:36:47 05:41:11 27° 294° (WNW) 05:45:34 435.225 FM
Uosat F 30 Aug 05:37:36 05:42:27 48° 100° (E) 05:47:16 435.120 FM
Oscar 10/S400 30 Aug 05:47:51 06:51:28 21° 251° (WSW) 09:09:16 145.825 - 145.975 CW/USB, Beacon 145.810 USB
UOSAT-12 30 Aug 05:48:01 05:51:40 24° 112° (ESE) 05:55:23 437.025 FM, 437.400 FM
OPAL 30 Aug 06:02:48 06:07:06 28° 263° (W) 06:11:28 ?
STRAND 1 30 Aug 06:08:09 06:10:59 15° 60° (ENE) 06:13:49 ?
JAS-1B 30 Aug 06:18:44 06:21:21 13° 311° (NW) 06:23:51 435.800 - 435.900 CW/SSB
TMSAT-1 30 Aug 06:30:29 06:32:51 13° 301° (WNW) 06:35:13 436.925 FM
KITSAT 1 30 Aug 06:31:31 06:35:11 13° 18° (NNE) 06:38:51 435.175 FM
AO-7 30 Aug 06:39:43 06:47:58 72° 292° (WNW) 06:56:10 29.400 - 29.500 MHz
RS-15 30 Aug 07:03:41 07:11:16 22° 101° (E) 07:18:44 29.354 - 29.394 USB, Beacon 29.352 USB
SO-50 30 Aug 07:08:34 07:09:15 10° 328° (NNW) 07:09:57 436.795 FM
Hamsat 30 Aug 07:15:06 07:19:21 50° 99° (E) 07:23:32 145.90 MHz
Uosat F 30 Aug 07:17:14 07:20:53 21° 297° (WNW) 07:24:32 435.120 FM
UOSAT-12 30 Aug 07:27:11 07:31:34 42° 309° (NW) 07:36:04 437.025 FM, 437.400 FM
JAS-2 30 Aug 07:28:25 07:33:35 59° 101° (ESE) 07:39:08 435.800 - 435.900 CW/SSB, 435.910 FM
STRAND 1 30 Aug 07:44:30 07:49:34 71° 257° (WSW) 07:54:41 ?
Saudisat 1A 30 Aug 08:12:45 08:17:06 56° 54° (NE) 08:21:26 436.775 MHz
KITSAT 1 30 Aug 08:26:05 08:33:27 37° 45° (NE) 08:40:45 435.175 FM
AO-7 30 Aug 08:34:31 08:39:20 17° 312° (NW) 08:44:08 29.400 - 29.500 MHz
SO-67 30 Aug 08:36:57 08:40:24 63° 100° (E) 08:43:50 435.3500 MHz FM
Hamsat 30 Aug 08:52:18 08:54:53 16° 296° (WNW) 08:57:27 145.90 MHz
HO-68 30 Aug 09:08:22 09:11:57 14° 89° (E) 09:15:31 435.675 MHz FM
JAS-2 30 Aug 09:14:55 09:18:19 18° 297° (WNW) 09:21:50 435.800 - 435.900 CW/SSB, 435.910 FM
